[[{"header":{"parameterUnit":"m.s-1","parameterCategory":1,"la1":30.2991,"la2":30.254,"lo1":-89.0895,"lo2":-89.0444,"dy":0.0017,"dx":0.0017,"nx":28,"ny":28,"refTime":"2023-08-26T09:00:00:Z","depth":0,"parameterNumber":2,"parameterNumberName":"U-component_of_WINDS"},"data":[0,0,0,0,0,0,0,0,0,0,0,0,0,0,0,0,0,0,0,0,0,0,0,0,0,0,0,0,0,0,0,0,0,0,0,0,0,0,0,0,0,0,0,0,0,0,0,0,0,0,0,0,0,0,0,0,0,0,-2.0121,-2.0122,0,-2.0207,-2.0208,-2.0209,-2.0242,-2.0241,-2.0241,-2.0241,-2.0322,-2.0324,-2.0327,0,0,0,0,0,0,0,0,0,0,0,0,0,-1.9976,-1.9979,-2.0121,-2.0122,-2.0123,-2.0207,-2.0208,-2.021,-2.0242,-2.0241,-2.0241,-2.0241,-2.0321,-2.0324,-2.0327,0,0,0,0,0,0,0,0,0,0,0,0,0,-2.0048,-1.998,-2.0121,-2.015,-2.0153,-2.0207,-2.0208,-2.021,-2.0242,-2.0241,-2.0241,-2.0241,-2.032,-2.0324,-2.0327,-2.0357,0,0,-2.0338,-2.034,0,0,0,0,0,0,0,0,-2.0044,-2.0054,-2.0144,-2.0148,-2.0152,-2.0214,-2.0187,-2.0259,-2.0242,-2.0208,-2.0241,-2.024,-2.0286,-2.0292,-2.0309,-2.0361,-2.0364,-2.0339,-2.0341,-2.0342,-2.0343,0,0,0,0,0,0,0,-2.0039,-2.005,-2.0155,-2.0145,-2.015,-2.0156,-2.0165,-2.0201,-2.0247,-2.0211,-2.0213,-2.0223,-2.0288,-2.0305,-2.0311,-2.0365,-2.0338,-2.0342,-2.0344,-2.0345,-2.0444,-2.0445,0,0,0,0,0,0,-2.003,-2.0046,-2.0152,-2.0158,-2.0096,-2.0158,-2.0169,-2.0194,-2.0247,-2.0255,-2.0224,-2.0225,-2.0299,-2.0307,-2.0314,-2.0352,-2.0342,-2.0346,-2.0348,-2.0444,-2.0444,-2.0445,0,0,0,0,0,0,-2.0027,-2.004,-2.0149,-2.0102,-2.0117,-2.0161,-2.0188,-2.0196,-2.0214,-2.0257,-2.0265,-2.0234,-2.0299,-2.0309,-2.0346,-2.0355,-2.0347,-2.035,-2.0443,-2.0444,-2.0445,-2.0427,0,0,0,0,0,0,-2.0023,-2.0038,-2.0052,-2.0103,-2.0119,-2.0182,-2.0189,-2.0198,-2.0221,-2.0223,-2.0269,-2.0276,-2.03,-2.0341,-2.035,-2.036,-2.0353,-2.0443,-2.0443,-2.0444,-2.0427,-2.0428,-2.0428,0,0,0,0,0,-2.0018,-2.0042,-2.0053,-2.0065,-2.0137,-2.0182,-2.0191,-2.0221,-2.0221,-2.0234,-2.0262,-2.0274,-2.0353,-2.0344,-2.0355,-2.0366,-2.0442,-2.0443,-2.0444,-2.0427,-2.0428,-2.0428,0,0,0,0,0,0,-1.9989,-2.0049,-2.0061,-2.0104,-2.0138,-2.0188,-2.0205,-2.022,-2.0253,-2.0253,-2.0285,-2.0295,-2.033,-2.0351,-2.0341,-2.0397,-2.0398,-2.0401,-2.0381,-2.0382,-2.0382,-2.0376,-2.0356,0,0,0,0,0,-1.9988,-2.0022,-2.0072,-2.0104,-2.0121,-2.016,-2.018,-2.02,-2.0236,-2.025,-2.028,-2.0312,-2.0344,-2.0364,-2.0396,-2.0431,-2.044,-2.0443,-2.0443,-2.0443,-2.0445,-2.0464,-2.0466,-2.0448,-2.0448,-2.0448,0,0,-1.9985,-2.0023,-2.0042,-2.0099,-2.0128,-2.016,-2.0172,-2.0205,-2.0228,-2.0254,-2.0292,-2.0315,-2.0353,-2.0389,-2.0406,-2.0408,-2.0452,-2.0444,-2.0444,-2.0446,-2.0466,-2.0467,-2.0469,-2.0449,-2.0449,-2.0449,0,0,-1.9997,-2.003,-2.006,-2.0089,-2.0133,-2.0159,-2.0166,-2.0214,-2.0231,-2.027,-2.029,-2.0316,-2.037,-2.0397,-2.0417,-2.0438,-2.045,-2.0447,-2.0447,-2.0465,-2.0467,-2.0468,-2.0475,-2.0477,-2.0449,-2.0449,-2.0449,0,-1.9988,-2.004,-2.0073,-2.0106,-2.013,-2.0156,-2.0186,-2.0211,-2.0263,-2.0277,-2.0279,-2.0348,-2.0375,-2.0417,-2.0422,-2.0438,-2.0446,-2.0442,-2.0464,-2.0466,-2.0468,-2.0474,-2.0477,-2.0448,-2.0448,-2.0448,-2.0448,0,-2.0025,-2.0061,-2.0079,-2.0131,-2.0157,-2.0187,-2.0223,-2.0245,-2.0262,-2.0286,-2.0324,-2.0358,-2.0397,-2.0408,-2.0424,-2.0452,-2.0452,-2.0458,-2.046,-2.0468,-2.0475,-2.0478,-2.0447,-2.0447,-2.0448,-2.0448,0,0,-2.0022,-2.0092,-2.0098,-2.0122,-2.0172,-2.0199,-2.0229,-2.027,-2.0287,-2.0321,-2.0347,-2.0392,-2.0398,-2.0421,-2.044,-2.0456,-2.0469,-2.0461,-2.0462,-2.0461,-2.0501,-2.0496,-2.0499,-2.0478,-2.0479,-2.0479,-2.0498,0,-2.004,-2.01,-2.013,-2.0176,-2.0208,-2.0233,-2.026,-2.0292,-2.0316,-2.0344,-2.0369,-2.0401,-2.0407,-2.0421,-2.0438,-2.0464,-2.0478,-2.0463,-2.05,-2.0501,-2.049,-2.0502,-2.0497,-2.0513,-2.0501,-2.0501,-2.0502,0,-2.007,-2.0106,-2.0156,-2.0202,-2.0217,-2.0241,-2.0279,-2.0307,-2.0343,-2.0359,-2.0385,-2.0404,-2.0434,-2.0434,-2.0476,-2.0466,-2.0482,-2.0497,-2.0498,-2.0503,-2.0502,-2.0506,-2.0519,-2.0521,-2.0506,-2.0506,-2.0506,0,-2.0062,-2.0123,-2.016,-2.0179,-2.0235,-2.0251,-2.0274,-2.031,-2.0332,-2.0365,-2.0379,-2.0414,-2.0433,-2.0459,-2.0485,-2.0483,-2.0524,-2.0527,-2.0537,-2.0536,-2.0544,-2.0543,-2.0559,-2.0555,-2.0555,-2.0555,-2.0555,0,-2.0079,-2.0108,-2.0157,-2.018,-2.0213,-2.0246,-2.0276,-2.0301,-2.0333,-2.0359,-2.0382,-2.0406,-2.044,-2.0467,-2.0488,-2.0519,-2.0527,-2.054,-2.0545,-2.0538,-2.0536,-2.0549,-2.0548,-2.0556,-2.0556,-2.0556,-2.0556,0,-2.0075,-2.011,-2.0153,-2.0202,-2.0215,-2.0236,-2.0277,-2.0299,-2.0324,-2.0357,-2.0366,-2.0404,-2.0437,-2.0467,-2.051,-2.0524,-2.0555,-2.0562,-2.0544,-2.0547,-2.0555,-2.0554,-2.058,-2.0584,-2.0577,-2.0577,-2.0577,0,-2.0084,-2.0108,-2.016,-2.0181,-2.0204,-2.0237,-2.026,-2.0292,-2.0315,-2.0358,-2.0374,-2.041,-2.044,-2.0491,-2.0521,-2.0553,-2.056,-2.0567,-2.0565,-2.0557,-2.056,-2.0558,-2.056,-2.0567,-2.0567,-2.0567,-2.0567,0,-2.0096,-2.0112,-2.0146,-2.0185,-2.0213,-2.0245,-2.0277,-2.0292,-2.033,-2.0354,-2.039,-2.0413,-2.0458,-2.0492,-2.0528,-2.0549,-2.0564,-2.0567,-2.0571,-2.0564,-2.0553,-2.0559,-2.0543,-2.0566,-2.0566,-2.0566,-2.0566,-2.0566,-2.0099,-2.012,-2.0161,-2.0197,-2.0226,-2.0255,-2.0279,-2.0307,-2.0338,-2.0379,-2.0395,-2.0431,-2.0465,-2.0516,-2.0537,-2.0563,-2.0566,-2.0572,-2.0573,-2.0574,-2.0573,-2.0549,-2.057,-2.057,-2.057,-2.057,-2.057,0,-2.0111,-2.0138,-2.0172,-2.0218,-2.0246,-2.026,-2.0296,-2.0318,-2.035,-2.0382,-2.0412,-2.0451,-2.0484,-2.0517,-2.0551,-2.0566,-2.0574,-2.0574,-2.0573,-2.0577,-2.0569,-2.0562,-2.0568,-2.0568,-2.0568,-2.0568,-2.0568,-2.0568,-2.0121,-2.0158,-2.0179,-2.023,-2.0256,-2.0294,-2.0313,-2.034,-2.0366,-2.041,-2.0439,-2.0461,-2.0492,-2.0529,-2.0559,-2.0567,-2.0578,-2.0577,-2.0587,-2.0578,-2.0578,-2.0578,-2.0572,-2.0579,-2.0579,-2.0594,-2.0594,-2.0594]},{"header":{"parameterUnit":"m.s-1","parameterCategory":1,"la1":30.2991,"la2":30.254,"lo1":-89.0895,"lo2":-89.0444,"dy":0.0017,"dx":0.0017,"nx":28,"ny":28,"refTime":"2023-08-26T09:00:00:Z","depth":0,"parameterNumber":3,"parameterNumberName":"V-component_of_WINDS"},"data":[0,0,0,0,0,0,0,0,0,0,0,0,0,0,0,0,0,0,0,0,0,0,0,0,0,0,0,0,0,0,0,0,0,0,0,0,0,0,0,0,0,0,0,0,0,0,0,0,0,0,0,0,0,0,0,0,0,0,0.1635,0.1635,0,0.1637,0.1637,0.1637,0.1583,0.1581,0.158,0.1579,0.1581,0.1583,0.1584,0,0,0,0,0,0,0,0,0,0,0,0,0,0.1585,0.1586,0.1635,0.1635,0.1635,0.1637,0.1637,0.1637,0.1583,0.1581,0.158,0.1578,0.1581,0.1582,0.1584,0,0,0,0,0,0,0,0,0,0,0,0,0,0.1599,0.1587,0.1635,0.1608,0.1606,0.1637,0.1637,0.1637,0.1583,0.1581,0.1579,0.1577,0.158,0.1582,0.1584,0.1641,0,0,0.1591,0.1592,0,0,0,0,0,0,0,0,0.1598,0.1601,0.1612,0.161,0.1607,0.1607,0.1621,0.1639,0.1584,0.1592,0.1579,0.1576,0.1592,0.1593,0.1598,0.1642,0.1642,0.1591,0.1592,0.1593,0.1594,0,0,0,0,0,0,0,0.1597,0.16,0.1636,0.1612,0.1609,0.1597,0.1596,0.1624,0.1604,0.1591,0.1587,0.1588,0.159,0.1596,0.1598,0.1642,0.1591,0.1593,0.1594,0.1595,0.1736,0.1738,0,0,0,0,0,0,0.16,0.16,0.1636,0.1636,0.1597,0.1599,0.1599,0.161,0.1604,0.1601,0.159,0.1586,0.1593,0.1595,0.1598,0.1666,0.1593,0.1595,0.1597,0.1733,0.1736,0.1739,0,0,0,0,0,0,0.1599,0.1604,0.1635,0.1617,0.162,0.1603,0.1615,0.1611,0.1617,0.1603,0.1599,0.16,0.1592,0.1595,0.1632,0.1666,0.1596,0.1598,0.1731,0.1734,0.1738,0.1803,0,0,0,0,0,0,0.1598,0.1604,0.1624,0.1618,0.1621,0.1669,0.1617,0.1612,0.1621,0.1615,0.1611,0.1608,0.159,0.1629,0.1634,0.1667,0.16,0.1727,0.1732,0.1737,0.1798,0.1808,0.1818,0,0,0,0,0,0.1596,0.1642,0.1626,0.163,0.1647,0.1671,0.1673,0.1651,0.1624,0.1645,0.1637,0.1608,0.1661,0.1633,0.1638,0.1673,0.1725,0.1731,0.1736,0.1793,0.1806,0.1817,0,0,0,0,0,0,0.1652,0.164,0.1622,0.1667,0.1671,0.1662,0.1688,0.1665,0.1677,0.1671,0.1644,0.1644,0.1686,0.1683,0.1652,0.173,0.1688,0.1695,0.173,0.1742,0.1752,0.1752,0.1602,0,0,0,0,0,0.167,0.169,0.1679,0.1719,0.1722,0.1705,0.1715,0.1698,0.1701,0.1702,0.1696,0.17,0.1718,0.1729,0.1745,0.1797,0.1797,0.1824,0.1834,0.1842,0.1848,0.1879,0.1892,0.1757,0.1757,0.1757,0,0,0.1706,0.1702,0.1716,0.1731,0.1731,0.1754,0.1707,0.1732,0.1749,0.1706,0.1741,0.1737,0.174,0.1786,0.1806,0.1785,0.1886,0.1849,0.1856,0.1858,0.1886,0.1899,0.191,0.1761,0.176,0.176,0,0,0.1784,0.1782,0.1817,0.182,0.1822,0.1811,0.182,0.1815,0.1811,0.1847,0.1816,0.1836,0.1866,0.187,0.1876,0.196,0.1935,0.1966,0.2018,0.2048,0.2058,0.2068,0.21,0.2111,0.1972,0.1972,0.1972,0,0.1828,0.1861,0.1838,0.1867,0.1875,0.1838,0.1874,0.1878,0.1885,0.1892,0.1869,0.1908,0.1907,0.1955,0.1976,0.1981,0.1992,0.1966,0.2059,0.2068,0.2076,0.2107,0.2119,0.1976,0.1976,0.1975,0.1975,0,0.1917,0.1941,0.1969,0.1979,0.199,0.2022,0.2005,0.202,0.2003,0.1995,0.2033,0.2031,0.2047,0.2057,0.204,0.2103,0.209,0.2063,0.2021,0.2093,0.2122,0.2133,0.1981,0.198,0.1979,0.1978,0,0,0.2028,0.2027,0.2038,0.2043,0.2045,0.2063,0.2095,0.2111,0.2125,0.2132,0.2159,0.2187,0.2163,0.217,0.2154,0.2181,0.225,0.215,0.215,0.2171,0.2323,0.2345,0.2358,0.2234,0.2236,0.2238,0.2324,0,0.2106,0.216,0.2142,0.2197,0.222,0.2187,0.2215,0.222,0.2214,0.2234,0.2227,0.2248,0.2213,0.2218,0.2243,0.2237,0.2281,0.223,0.2261,0.2262,0.2262,0.2373,0.2395,0.2476,0.2334,0.2336,0.2337,0,0.2203,0.2216,0.2274,0.2275,0.2284,0.2309,0.2324,0.2343,0.2349,0.2343,0.2353,0.2332,0.2364,0.2323,0.2369,0.2335,0.2346,0.2346,0.2348,0.2351,0.2305,0.238,0.2501,0.2514,0.2354,0.2353,0.2352,0,0.2281,0.2312,0.2352,0.2357,0.2359,0.2378,0.238,0.2383,0.2395,0.2409,0.2417,0.2433,0.2443,0.2457,0.2442,0.2413,0.2492,0.2448,0.2489,0.249,0.2508,0.2507,0.2634,0.2513,0.2513,0.2513,0.2512,0,0.237,0.2407,0.2388,0.2412,0.2454,0.2434,0.2476,0.2474,0.2478,0.2503,0.2475,0.2499,0.2477,0.2499,0.2488,0.253,0.2533,0.2531,0.2528,0.2534,0.2535,0.2542,0.2537,0.2516,0.2515,0.2515,0.2514,0,0.2463,0.2452,0.2493,0.2493,0.2493,0.2525,0.2524,0.2548,0.2541,0.2573,0.2579,0.2568,0.2594,0.258,0.2606,0.2598,0.2653,0.2641,0.2651,0.2649,0.2692,0.2689,0.2829,0.2847,0.2713,0.2714,0.2716,0,0.2521,0.255,0.2553,0.2568,0.2572,0.2596,0.2609,0.2591,0.2605,0.2616,0.2639,0.2662,0.268,0.2722,0.2717,0.2738,0.2727,0.2775,0.273,0.2737,0.2731,0.273,0.2734,0.2784,0.2786,0.2787,0.2788,0,0.2626,0.262,0.264,0.2659,0.2676,0.2689,0.2701,0.2715,0.2697,0.2715,0.2742,0.2756,0.2783,0.2807,0.2826,0.2828,0.2807,0.2802,0.2814,0.2821,0.2827,0.2827,0.2678,0.2799,0.2798,0.2797,0.2797,0.2796,0.2705,0.273,0.2738,0.2761,0.2769,0.2781,0.2804,0.2801,0.2823,0.2845,0.2833,0.2864,0.2872,0.2895,0.2901,0.2926,0.2907,0.2922,0.2927,0.2931,0.2938,0.2822,0.2929,0.2929,0.2928,0.2928,0.2928,0,0.281,0.2814,0.2837,0.2855,0.2875,0.2853,0.2865,0.2883,0.2912,0.2921,0.294,0.2972,0.2996,0.2994,0.3017,0.3038,0.3029,0.3045,0.3044,0.3045,0.2952,0.2942,0.3052,0.3052,0.3052,0.3052,0.3052,0.3052,0.2867,0.291,0.2905,0.2952,0.2955,0.2987,0.2996,0.3008,0.3016,0.3054,0.3074,0.3073,0.3079,0.3103,0.3125,0.3124,0.3134,0.3154,0.315,0.3064,0.3051,0.304,0.3029,0.3156,0.3157,0.3241,0.3242,0.3242]}]]